OPS 4682 DEB, 38380

Orbit data source: Space-Track

OPS 4682 DEB, 38380 is space debris in LEO originally from a launch on Sat, 03 Apr 1965 UTC launched from the Air Force Western Test Range (AFWTR). Debris objects in space refer to the collection of defunct objects orbiting the Earth. Examples of debris include non-operational satellites, rocket bodies, and fragments generated from explosions, collisions, or faulty payload assembly.

Loading next visibility...
Identifier
38380, 1965-027CH
Orbit
LEO
Country
Flag of USUS
Related business
Manufacturer
Unknown
Mission
Spacecraft
Bus & Motor
Unknown
Mass
Unknown
Launch date (UTC)
1965-04-03 (61 years ago)
Launch vehicle
Unknown
Launch site
Air Force Western Test Range (AFWTR)
Object type
Payload
Rocket body
Debris
Shape & HBR
Unknown shape, 0.1 m
Radar Cross Section
Small (<0.1 m²)

Expand to show TLE details & history
Last TLE update: 1 day ago

TLE from 1 day ago
0 OPS 4682 DEB
1 38380U 65027CH  26207.04336661 -.00000881  00000-0 -29608-2 0  9994
2 38380  90.2572 322.1748 0020627 210.0722 149.9217 12.99751736582667
Epoch: 2026-07-26T01:02Z
TLE epoch observation values (Epoch: 2026-07-26T01:02:26.875Z)
Latitude
-0°
Longitude
2.81586°
Altitude
1,279.593 km
Speed
7.21 km/s
True Right ascension
21h 28m 41s
True Declination
0° 00' 00"
Sunlit
Object was in full shadow at epoch
Visualization orbit readout
Latitude
Unknown
Longitude
Unknown
Altitude
Unknown
Speed
Unknown
Apparent Right ascension
Unknown
Apparent Declination
Unknown
Sunlit
N/A
Visualization observer readout
Local Sidereal Time
19:41:47
Azimuth
Unknown
Elevation
Unknown
Doppler factor
Unknown
Orbital elements
Apogee altitude
1,275.942 km
Perigee altitude
1,244.431 km
Semi-major axis
7,638.324 km
Eccentricity
0.00206
Inclination
90.2572°
RAAN
322.1748°
Arg. of periapsis
210.0722°
True anomaly
150.0399°
Mean anomaly
149.9217°
Eccentric anomaly
149.98083°
Mean motion
3.25122 °/min
Orbital period
110.73 mins
BSTAR
-0.0029608
Loading maneuver chart data...
Computing Atmospheric mass density...
Loading historical data...
Loading historical data...
Loading historical data...
Loading historical data...
Loading historical data...
Loading historical data...
Loading historical data...

Documentation

Showing up to 5 results
|